When you browse on this site, cookies collect data to enhance your experience and personalize the content and advertising you see.
Visit our Privacy Policy to learn more. By continuing to use the site, you agree to this use of cookies and data.
  • en Suisse
  • Liste des pays
  • À 7 jours
  • Température de l'eau
  • Carte satellitaire
  • Carte météo
  • Widgets météo
  • user-avatar
    Se connecter

    Météo par heure à Nordhausen

    Ce jour, 26 Mai, Dimanche

    Heure Température Précipitation Vent Pression Humidité
    00:00 +9°C° 0 mm 1 m/s 741 mmHg 93%
    01:00 +7°C° 0 mm 0 m/s 741 mmHg 93%
    02:00 +8°C° 0 mm 1 m/s 741 mmHg 93%
    03:00 +8°C° 0 mm 1 m/s 741 mmHg 93%
    04:00 +8°C° 0 mm 1 m/s 740 mmHg 94%
    05:00 +8°C° 0 mm 2 m/s 740 mmHg 90%
    06:00 +10°C° 0 mm 2 m/s 740 mmHg 87%
    07:00 +13°C° 0 mm 2 m/s 740 mmHg 83%
    08:00 +13°C° 0 mm 3 m/s 740 mmHg 77%
    09:00 +15°C° 0 mm 4 m/s 740 mmHg 72%
    10:00 +17°C° 0 mm 5 m/s 740 mmHg 66%
    11:00 +19°C° 0 mm 5 m/s 739 mmHg 64%
    12:00 +19°C° 0 mm 5 m/s 739 mmHg 61%
    13:00 +20°C° 0 mm 6 m/s 738 mmHg 58%
    14:00 +20°C° 0 mm 5 m/s 738 mmHg 59%
    15:00 +21°C° 0 mm 5 m/s 738 mmHg 60%
    16:00 +21°C° 0 mm 5 m/s 737 mmHg 61%
    17:00 +20°C° 0 mm 4 m/s 737 mmHg 66%
    18:00 +19°C° 0 mm 4 m/s 737 mmHg 70%
    19:00 +18°C° 0 mm 3 m/s 736 mmHg 74%
    20:00 +17°C° 0 mm 3 m/s 736 mmHg 78%
    21:00 +16°C° 0 mm 3 m/s 736 mmHg 82%
    22:00 +14°C° 0 mm 3 m/s 736 mmHg 86%
    23:00 +13°C° 0 mm 3 m/s 736 mmHg 89%

    Demain, 27 Mai, Lundi

    Heure Température Précipitation Vent Pression Humidité
    00:00 +13°C° 0 mm 3 m/s 736 mmHg 91%
    01:00 +13°C° 0 mm 4 m/s 736 mmHg 94%
    02:00 +13°C° 0 mm 4 m/s 736 mmHg 94%
    03:00 +12°C° 0 mm 4 m/s 735 mmHg 95%
    04:00 +12°C° 0 mm 4 m/s 735 mmHg 95%
    05:00 +13°C° 0.1 mm 4 m/s 735 mmHg 95%
    06:00 +13°C° 0.1 mm 4 m/s 735 mmHg 94%
    07:00 +13°C° 0.1 mm 4 m/s 735 mmHg 94%
    08:00 +13°C° 0.1 mm 4 m/s 735 mmHg 92%
    09:00 +14°C° 0.1 mm 4 m/s 736 mmHg 91%
    10:00 +14°C° 0.1 mm 4 m/s 736 mmHg 89%
    11:00 +14°C° 0 mm 3 m/s 736 mmHg 88%
    12:00 +14°C° 0 mm 3 m/s 736 mmHg 87%
    13:00 +14°C° 0 mm 2 m/s 736 mmHg 86%
    14:00 +16°C° 0 mm 3 m/s 736 mmHg 81%
    15:00 +17°C° 0 mm 3 m/s 735 mmHg 75%
    16:00 +18°C° 0 mm 3 m/s 735 mmHg 69%
    17:00 +17°C° 0 mm 3 m/s 735 mmHg 72%
    18:00 +17°C° 0 mm 2 m/s 735 mmHg 76%
    19:00 +16°C° 0 mm 2 m/s 735 mmHg 79%
    20:00 +14°C° 0 mm 2 m/s 735 mmHg 83%
    21:00 +13°C° 0 mm 2 m/s 735 mmHg 87%
    22:00 +11°C° 0 mm 1 m/s 735 mmHg 91%
    23:00 +11°C° 0 mm 1 m/s 735 mmHg 91%

    Après-demain, 28 Mai, Mardi

    Heure Température Précipitation Vent Pression Humidité
    00:00 +11°C° 0 mm 1 m/s 735 mmHg 92%
    01:00 +11°C° 0 mm 1 m/s 735 mmHg 92%
    02:00 +10°C° 0 mm 1 m/s 735 mmHg 92%
    03:00 +10°C° 0 mm 1 m/s 735 mmHg 93%
    04:00 +9°C° 0 mm 1 m/s 734 mmHg 94%
    05:00 +10°C° 0 mm 1 m/s 734 mmHg 90%
    06:00 +11°C° 0 mm 1 m/s 734 mmHg 86%
    07:00 +11°C° 0 mm 0 m/s 735 mmHg 82%
    08:00 +13°C° 0.1 mm 0 m/s 734 mmHg 77%
    09:00 +14°C° 0.1 mm 0 m/s 734 mmHg 72%
    10:00 +15°C° 0.1 mm 0 m/s 734 mmHg 68%
    11:00 +16°C° 0.3 mm 1 m/s 734 mmHg 68%
    12:00 +18°C° 0.3 mm 1 m/s 734 mmHg 68%
    13:00 +18°C° 0.3 mm 1 m/s 734 mmHg 68%
    14:00 +18°C° 0.6 mm 1 m/s 733 mmHg 71%
    15:00 +16°C° 0.6 mm 1 m/s 733 mmHg 75%
    16:00 +16°C° 0.6 mm 1 m/s 733 mmHg 78%
    17:00 +15°C° 0.7 mm 1 m/s 733 mmHg 82%
    18:00 +15°C° 0.7 mm 1 m/s 733 mmHg 86%
    19:00 +14°C° 0.7 mm 1 m/s 734 mmHg 90%
    20:00 +13°C° 0.1 mm 1 m/s 734 mmHg 90%
    21:00 +11°C° 0.1 mm 1 m/s 734 mmHg 91%
    22:00 +9°C° 0.1 mm 0 m/s 735 mmHg 92%
    23:00 +10°C° 0 mm 1 m/s 735 mmHg 92%

    29 Mai, Mercredi

    Heure Température Précipitation Vent Pression Humidité
    00:00 +10°C° 0 mm 1 m/s 735 mmHg 92%
    01:00 +10°C° 0 mm 1 m/s 735 mmHg 92%
    02:00 +9°C° 0 mm 1 m/s 736 mmHg 93%
    03:00 +9°C° 0 mm 1 m/s 736 mmHg 93%
    04:00 +9°C° 0 mm 1 m/s 736 mmHg 94%
    05:00 +9°C° 0 mm 2 m/s 737 mmHg 93%
    06:00 +10°C° 0 mm 2 m/s 737 mmHg 93%
    07:00 +11°C° 0 mm 3 m/s 738 mmHg 92%
    08:00 +11°C° 0.1 mm 3 m/s 739 mmHg 92%
    09:00 +10°C° 0.1 mm 3 m/s 739 mmHg 92%
    10:00 +10°C° 0.1 mm 4 m/s 739 mmHg 93%
    11:00 +10°C° 0 mm 4 m/s 740 mmHg 90%
    12:00 +11°C° 0 mm 4 m/s 740 mmHg 87%
    13:00 +11°C° 0 mm 4 m/s 740 mmHg 84%
    14:00 +11°C° 0 mm 4 m/s 741 mmHg 81%
    15:00 +12°C° 0 mm 4 m/s 741 mmHg 79%
    16:00 +12°C° 0 mm 4 m/s 741 mmHg 76%
    17:00 +12°C° 0.1 mm 3 m/s 741 mmHg 79%
    18:00 +13°C° 0.1 mm 2 m/s 742 mmHg 81%
    19:00 +12°C° 0.1 mm 2 m/s 742 mmHg 84%
    20:00 +11°C° 0 mm 1 m/s 742 mmHg 87%
    21:00 +9°C° 0 mm 1 m/s 743 mmHg 90%
    22:00 +8°C° 0 mm 1 m/s 743 mmHg 92%
    23:00 +8°C° 0 mm 1 m/s 743 mmHg 93%

    30 Mai, Jeudi

    Heure Température Précipitation Vent Pression Humidité
    00:00 +7°C° 0 mm 1 m/s 744 mmHg 93%
    01:00 +7°C° 0 mm 1 m/s 744 mmHg 93%
    02:00 +6°C° 0 mm 1 m/s 744 mmHg 93%
    03:00 +6°C° 0 mm 1 m/s 744 mmHg 93%
    04:00 +6°C° 0 mm 1 m/s 744 mmHg 93%
    05:00 +7°C° 0 mm 1 m/s 744 mmHg 89%
    06:00 +9°C° 0 mm 1 m/s 745 mmHg 86%
    07:00 +11°C° 0 mm 1 m/s 745 mmHg 83%
    08:00 +12°C° 0 mm 2 m/s 745 mmHg 73%
    09:00 +14°C° 0 mm 2 m/s 745 mmHg 63%
    10:00 +15°C° 0 mm 2 m/s 745 mmHg 54%
    11:00 +16°C° 0.1 mm 2 m/s 745 mmHg 56%
    12:00 +16°C° 0.1 mm 3 m/s 745 mmHg 59%
    13:00 +16°C° 0.1 mm 3 m/s 745 mmHg 61%
    14:00 +16°C° 0.2 mm 3 m/s 744 mmHg 64%
    15:00 +16°C° 0.2 mm 3 m/s 744 mmHg 67%
    16:00 +16°C° 0.2 mm 3 m/s 744 mmHg 70%
    17:00 +14°C° 0.2 mm 3 m/s 744 mmHg 75%
    18:00 +14°C° 0.2 mm 3 m/s 744 mmHg 80%
    19:00 +14°C° 0.2 mm 2 m/s 744 mmHg 85%
    20:00 +13°C° 0 mm 2 m/s 745 mmHg 87%
    21:00 +10°C° 0 mm 2 m/s 745 mmHg 89%
    22:00 +9°C° 0 mm 2 m/s 746 mmHg 92%
    23:00 +9°C° 0.1 mm 2 m/s 746 mmHg 92%

    31 Mai, Vendredi

    Heure Température Précipitation Vent Pression Humidité
    00:00 +10°C° 0.1 mm 1 m/s 746 mmHg 92%
    01:00 +10°C° 0.1 mm 1 m/s 746 mmHg 93%
    02:00 +10°C° 0.6 mm 1 m/s 747 mmHg 93%
    03:00 +9°C° 0.6 mm 0 m/s 747 mmHg 94%
    04:00 +9°C° 0.6 mm 0 m/s 747 mmHg 95%
    05:00 +9°C° 0.1 mm 0 m/s 747 mmHg 95%
    06:00 +11°C° 0.1 mm 1 m/s 747 mmHg 94%
    07:00 +11°C° 0.1 mm 1 m/s 748 mmHg 94%
    08:00 +12°C° 0 mm 1 m/s 748 mmHg 91%
    09:00 +13°C° 0 mm 1 m/s 748 mmHg 88%
    10:00 +14°C° 0 mm 2 m/s 748 mmHg 85%
    11:00 +14°C° 0.1 mm 2 m/s 748 mmHg 87%
    12:00 +14°C° 0.1 mm 2 m/s 747 mmHg 88%
    13:00 +14°C° 0.1 mm 3 m/s 747 mmHg 89%
    14:00 +16°C° 0 mm 3 m/s 747 mmHg 84%
    15:00 +17°C° 0 mm 3 m/s 747 mmHg 80%
    16:00 +18°C° 0 mm 3 m/s 747 mmHg 75%
    17:00 +18°C° 0.4 mm 3 m/s 747 mmHg 81%
    18:00 +17°C° 0.4 mm 2 m/s 747 mmHg 87%
    19:00 +16°C° 0.4 mm 2 m/s 746 mmHg 93%
    20:00 +16°C° 0.4 mm 2 m/s 747 mmHg 94%
    21:00 +15°C° 0.4 mm 2 m/s 747 mmHg 95%
    22:00 +15°C° 0.4 mm 2 m/s 747 mmHg 96%
    23:00 +14°C° 0 mm 2 m/s 747 mmHg 96%
    Voir plus